Overview Statistics Trail Chart Weather Telemetry Raw packets
 

This is the latest recevied weather packets stored in our database for station/object KN4AN. If no packets are shown the sender has not sent any weather packets the latest 10 day(s).

<< 106 107 108 109 110 111 112 >>
Time Temp. Humidity Pressure Rain* Wind** Luminosity Snow
1787760883 27.78° C 54% 1019.4 hPa 0 mm - 747 W/m² -
1787760581 27.22° C 54% 1019.5 hPa 0 mm - 590 W/m² -
1787760280 26.67° C 54% 1019.6 hPa 0 mm - 749 W/m² -
1787759978 26.67° C 55% 1019.5 hPa 0 mm - 554 W/m² -
1787759673 27.22° C 54% 1019.6 hPa 0 mm - 734 W/m² -
1787759369 26.67° C 55% 1019.5 hPa 0 mm - 713 W/m² -
1787759064 26.67° C 57% 1019.6 hPa 0 mm - 690 W/m² -
1787758763 26.11° C 55% 1019.7 hPa 0 mm - 696 W/m² -
1787758459 26.11° C 58% 1019.7 hPa 0 mm - 695 W/m² -
1787758158 26.67° C 55% 1019.7 hPa 0 mm - 725 W/m² -
1787757853 26.11° C 56% 1019.8 hPa 0 mm - 748 W/m² -
1787757549 25.56° C 60% 1019.9 hPa 0 mm - 764 W/m² -
1787757243 25° C 60% 1020.1 hPa 0 mm - 372 W/m² -
1787756941 25.56° C 58% 1020 hPa 0 mm - 398 W/m² -
1787756638 26.11° C 55% 1019.9 hPa 0 mm - 407 W/m² -
1787756336 25.56° C 57% 1020 hPa 0 mm - 616 W/m² -
1787756036 25.56° C 58% 1020 hPa 0 mm - 597 W/m² -
1787755731 25° C 58% 1019.8 hPa 0 mm - 589 W/m² -
1787755426 25° C 62% 1019.9 hPa 0 mm - 582 W/m² -
1787755125 25° C 65% 1020 hPa 0 mm - 567 W/m² -
1787754820 24.44° C 62% 1020.1 hPa 0 mm - 549 W/m² -
1787754519 24.44° C 63% 1020.2 hPa 0 mm - 537 W/m² -
1787754218 23.33° C 65% 1020 hPa 0 mm - 529 W/m² -
1787753913 23.33° C 67% 1020.3 hPa 0 mm - 514 W/m² -
1787753612 22.78° C 67% 1020.2 hPa 0 mm - 493 W/m² -

* Rain latest hour (hover to see other rain measurements)
** Current wind speed in m/s (hover to see current wind gust speed)